Terminal Aerodrome Forecast
Issued by NWS Des Moines, IA

Home | Current Version | Previous Version | Text Only | Print | Product List | Glossary On
Versions: 1 2 3 4 5 6 7 8 9 10 11 12 13 14 15 16 17 18 19 20 21 22 23 24 25 26 27 28 29 30 31 32 33 34 35 36 37 38 39 40 41 42 43
436
FTUS43 KDMX 070540
TAFDSM
TAF
KDSM 070540Z 0706/0806 21010KT P6SM SCT150
     FM071000 26011KT P6SM BKN200
     FM071600 28014G24KT P6SM SCT200
     FM072300 30018G26KT P6SM OVC060
     FM080200 32019G28KT 5SM -SHSN OVC030=

USA.gov is the U.S. government's official web portal to all federal, state and local government web resources and services.